Radiation Dose at Monitoring Post of Fukushima Daini Nuclear Power Station
Date,Time,MP-1(microSv/h),MP-2(microSv/h),MP-3(microSv/h),MP-4(microSv/h),MP-5(microSv/h),MP-6(microSv/h),MP-7(microSv/h),Wind Direction,Wind Velocity(m/s),Rain
2017/07/20,00:00,0.354,0.218,0.366,0.337,0.322,0.177,0.104,south,4.8,No
2017/07/20,00:10,0.357,0.218,0.363,0.343,0.326,0.177,0.105,south,5.3,No
2017/07/20,00:20,0.358,0.219,0.366,0.340,0.324,0.178,0.104,south,5.7,No
2017/07/20,00:30,0.355,0.219,0.364,0.338,0.323,0.178,0.104,south,3.9,No
2017/07/20,00:40,0.359,0.220,0.365,0.342,0.326,0.176,0.105,south-southwest,3.3,No
2017/07/20,00:50,0.356,0.218,0.366,0.339,0.322,0.179,0.105,south-southwest,2.2,No
2017/07/20,01:00,0.356,0.220,0.363,0.342,0.326,0.178,0.105,south,3.0,No
2017/07/20,01:10,0.359,0.219,0.366,0.341,0.323,0.177,0.104,south,2.7,No
2017/07/20,01:20,0.353,0.219,0.363,0.337,0.324,0.178,0.104,south,3.1,No
2017/07/20,01:30,0.358,0.219,0.367,0.342,0.327,0.177,0.105,south,4.3,No
2017/07/20,01:40,0.358,0.218,0.365,0.337,0.321,0.178,0.104,south,5.7,No
2017/07/20,01:50,0.355,0.220,0.365,0.341,0.326,0.178,0.104,south-southwest,5.5,No
2017/07/20,02:00,0.359,0.219,0.365,0.340,0.325,0.177,0.105,south-southwest,3.9,No
2017/07/20,02:10,0.354,0.219,0.363,0.339,0.322,0.179,0.104,south,4.0,No
2017/07/20,02:20,0.359,0.219,0.367,0.342,0.325,0.177,0.105,south-southwest,4.0,No
2017/07/20,02:30,0.359,0.220,0.365,0.340,0.322,0.178,0.104,south,4.3,No
2017/07/20,02:40,0.356,0.219,0.365,0.340,0.326,0.178,0.104,south,4.5,No
2017/07/20,02:50,0.360,0.219,0.367,0.339,0.323,0.177,0.105,south-southwest,3.9,No
2017/07/20,03:00,0.354,0.219,0.363,0.338,0.325,0.178,0.105,south-southwest,4.4,No
2017/07/20,03:10,0.359,0.219,0.368,0.342,0.326,0.176,0.105,south-southwest,4.9,No
2017/07/20,03:20,0.357,0.220,0.365,0.339,0.322,0.178,0.104,south,5.3,No
2017/07/20,03:30,0.355,0.218,0.365,0.343,0.326,0.178,0.105,south,4.2,No
2017/07/20,03:40,0.359,0.220,0.367,0.340,0.322,0.177,0.106,south,5.0,No
2017/07/20,03:50,0.355,0.219,0.363,0.339,0.324,0.178,0.105,south,5.1,No
2017/07/20,04:00,0.357,0.219,0.365,0.341,0.325,0.176,0.106,south,5.9,No
2017/07/20,04:10,0.357,0.220,0.364,0.340,0.323,0.178,0.104,south,5.8,No
2017/07/20,04:20,0.355,0.218,0.363,0.340,0.324,0.178,0.105,south,5.7,No
2017/07/20,04:30,0.356,0.218,0.365,0.341,0.325,0.177,0.106,south-southwest,3.8,No
2017/07/20,04:40,0.356,0.219,0.363,0.338,0.322,0.179,0.105,south,3.9,No
2017/07/20,04:50,0.356,0.219,0.368,0.342,0.326,0.178,0.105,south,4.5,No
2017/07/20,05:00,0.358,0.219,0.364,0.342,0.323,0.178,0.105,south,4.9,No
2017/07/20,05:10,0.354,0.219,0.365,0.341,0.325,0.180,0.105,south,4.5,No
2017/07/20,05:20,0.358,0.219,0.367,0.344,0.326,0.177,0.105,south,4.8,No
2017/07/20,05:30,0.358,0.219,0.363,0.338,0.322,0.179,0.105,south,4.7,No
2017/07/20,05:40,0.356,0.220,0.367,0.341,0.326,0.178,0.105,south,5.4,No
2017/07/20,05:50,0.360,0.219,0.364,0.340,0.325,0.178,0.104,south,5.5,No
2017/07/20,06:00,0.355,0.217,0.365,0.339,0.322,0.178,0.104,south,6.0,No
2017/07/20,06:10,0.358,0.220,0.366,0.342,0.326,0.177,0.105,south,7.0,No
2017/07/20,06:20,0.359,0.220,0.363,0.341,0.325,0.178,0.105,south,7.3,No
2017/07/20,06:30,0.355,0.218,0.366,0.340,0.322,0.178,0.104,south-southwest,5.7,No
2017/07/20,06:40,0.357,0.217,0.365,0.342,0.325,0.177,0.104,south,5.6,No
2017/07/20,06:50,0.359,0.220,0.362,0.338,0.325,0.179,0.104,south,6.8,No
2017/07/20,07:00,0.354,0.219,0.366,0.337,0.322,0.178,0.105,south,6.0,No
2017/07/20,07:10,0.354,0.218,0.366,0.342,0.320,0.177,0.105,south,4.2,No
2017/07/20,07:20,0.360,0.218,0.363,0.340,0.326,0.179,0.103,south,5.7,No
2017/07/20,07:30,0.358,0.216,0.361,0.338,0.324,0.178,0.104,south,6.1,No
2017/07/20,07:40,0.354,0.217,0.361,0.336,0.322,0.178,0.104,south,6.4,No
2017/07/20,07:50,0.355,0.218,0.364,0.341,0.322,0.176,0.103,south,7.8,Yes
2017/07/20,08:00,0.359,0.219,0.366,0.340,0.324,0.178,0.105,south,6.9,No
2017/07/20,08:10,0.357,0.219,0.364,0.341,0.327,0.179,0.104,south,8.4,No
2017/07/20,08:20,0.355,0.219,0.361,0.339,0.325,0.179,0.103,south,9.0,No
2017/07/20,08:30,0.354,0.217,0.361,0.336,0.323,0.177,0.104,south,8.9,No
2017/07/20,08:40,0.356,0.216,0.365,0.337,0.321,0.178,0.107,south,8.3,No
2017/07/20,08:50,0.359,0.218,0.366,0.338,0.321,0.177,0.108,south,8.4,No
2017/07/20,09:00,0.357,0.218,0.365,0.338,0.321,0.179,0.107,south,10.0,No
2017/07/20,09:10,0.355,0.218,0.363,0.338,0.321,0.177,0.107,south,10.2,No
2017/07/20,09:20,0.355,0.218,0.361,0.339,0.322,0.178,0.107,south,9.5,No
2017/07/20,09:30,0.354,0.219,0.366,0.338,0.322,0.178,0.107,south,8.9,No
2017/07/20,09:40,0.355,0.217,0.368,0.338,0.324,0.178,0.108,south,9.1,No
2017/07/20,09:50,0.356,0.219,0.365,0.341,0.323,0.178,0.107,south,10.1,No
2017/07/20,10:00,0.355,0.218,0.363,0.341,0.324,0.178,0.107,south,12.5,No
2017/07/20,10:10,0.356,0.217,0.363,0.339,0.322,0.178,0.108,south,12.3,No
2017/07/20,10:20,0.355,0.219,0.363,0.341,0.323,0.178,0.108,south,12.5,No
2017/07/20,10:30,0.355,0.218,0.362,0.340,0.322,0.179,0.108,south,11.6,No
2017/07/20,10:40,0.356,0.220,0.364,0.341,0.323,0.178,0.109,south,11.2,No
2017/07/20,10:50,0.356,0.219,0.364,0.341,0.324,0.179,0.108,south,12.1,No
2017/07/20,11:00,0.357,0.219,0.364,0.341,0.324,0.178,0.106,south,11.1,No
2017/07/20,11:10,0.359,0.219,0.364,0.342,0.325,0.178,0.107,south,11.4,No
2017/07/20,11:20,0.358,0.219,0.365,0.342,0.324,0.179,0.107,south,12.0,No
2017/07/20,11:30,0.358,0.219,0.365,0.340,0.323,0.179,0.108,south,11.5,No
2017/07/20,11:40,0.356,0.220,0.366,0.341,0.324,0.178,0.107,south,11.9,No
2017/07/20,11:50,0.357,0.220,0.366,0.342,0.325,0.179,0.108,south,11.2,No
2017/07/20,12:00,0.358,0.220,0.366,0.343,0.325,0.179,0.108,south,11.4,No
2017/07/20,12:10,0.359,0.220,0.366,0.342,0.325,0.179,0.108,south,13.5,No
2017/07/20,12:20,0.358,0.220,0.367,0.341,0.326,0.179,0.109,south,12.6,No
2017/07/20,12:30,0.357,0.220,0.366,0.342,0.326,0.180,0.108,south,12.0,No
2017/07/20,12:40,0.357,0.220,0.367,0.342,0.327,0.180,0.109,south,13.6,No
2017/07/20,12:50,0.358,0.221,0.367,0.344,0.326,0.179,0.109,south,13.4,No
2017/07/20,13:00,0.357,0.220,0.366,0.342,0.326,0.180,0.108,south,11.7,No
2017/07/20,13:10,0.356,0.220,0.367,0.342,0.326,0.179,0.109,south,12.2,No
2017/07/20,13:20,0.359,0.220,0.366,0.342,0.326,0.179,0.108,south,11.5,No
2017/07/20,13:30,0.357,0.221,0.364,0.343,0.328,0.178,0.108,south,11.5,No
2017/07/20,13:40,0.359,0.221,0.366,0.342,0.326,0.178,0.109,south,12.0,No
2017/07/20,13:50,0.358,0.220,0.365,0.341,0.326,0.180,0.108,south,11.6,No
2017/07/20,14:00,0.360,0.221,0.367,0.341,0.325,0.178,0.109,south,12.2,No
2017/07/20,14:10,0.360,0.221,0.367,0.340,0.325,0.178,0.109,south,12.9,No
2017/07/20,14:20,0.359,0.220,0.367,0.341,0.326,0.179,0.108,south,12.9,No
2017/07/20,14:30,0.359,0.220,0.367,0.344,0.325,0.180,0.109,south,12.8,No
2017/07/20,14:40,0.359,0.220,0.366,0.342,0.326,0.179,0.109,south,11.9,No
2017/07/20,14:50,0.358,0.220,0.365,0.341,0.325,0.179,0.108,south,13.7,No
2017/07/20,15:00,0.359,0.220,0.366,0.340,0.325,0.180,0.109,south,11.7,No
2017/07/20,15:10,0.357,0.221,0.367,0.341,0.325,0.180,0.109,south,12.0,No
2017/07/20,15:20,0.359,0.220,0.366,0.342,0.324,0.179,0.108,south,11.7,No
2017/07/20,15:30,0.358,0.221,0.366,0.341,0.326,0.179,0.109,south,12.8,No
2017/07/20,15:40,0.355,0.220,0.368,0.341,0.325,0.178,0.109,south,12.7,No
2017/07/20,15:50,0.357,0.220,0.368,0.341,0.324,0.179,0.108,south,10.7,No
2017/07/20,16:00,0.355,0.221,0.367,0.341,0.325,0.180,0.108,south,11.5,No
2017/07/20,16:10,0.356,0.220,0.367,0.341,0.326,0.180,0.108,south,10.8,No
2017/07/20,16:20,0.356,0.220,0.366,0.342,0.326,0.178,0.109,south,11.8,No
2017/07/20,16:30,0.356,0.220,0.366,0.347,0.325,0.179,0.107,south,11.3,No
2017/07/20,16:40,0.360,0.220,0.365,0.346,0.326,0.179,0.107,south,9.2,No
2017/07/20,16:50,0.362,0.218,0.364,0.344,0.324,0.179,0.107,south,11.0,No
2017/07/20,17:00,0.362,0.219,0.364,0.342,0.324,0.178,0.108,south-southwest,10.4,No
2017/07/20,17:10,0.361,0.221,0.367,0.341,0.325,0.179,0.109,south-southwest,9.8,No
2017/07/20,17:20,0.359,0.221,0.371,0.340,0.324,0.179,0.108,south-southwest,8.9,No
2017/07/20,17:30,0.357,0.222,0.369,0.341,0.325,0.179,0.108,south-southwest,9.5,No
2017/07/20,17:40,0.355,0.221,0.368,0.346,0.326,0.179,0.107,south-southwest,8.2,No
2017/07/20,17:50,0.357,0.219,0.366,0.345,0.325,0.181,0.107,south-southwest,8.5,No
2017/07/20,18:00,0.362,0.218,0.365,0.343,0.324,0.179,0.109,south-southwest,7.6,No
2017/07/20,18:10,0.360,0.219,0.366,0.342,0.323,0.179,0.109,south-southwest,9.3,No
2017/07/20,18:20,0.359,0.221,0.369,0.341,0.323,0.178,0.108,south-southwest,9.3,No
2017/07/20,18:30,0.356,0.221,0.371,0.344,0.323,0.179,0.107,south-southwest,9.1,No
2017/07/20,18:40,0.361,0.220,0.369,0.347,0.325,0.179,0.109,south-southwest,9.2,No
2017/07/20,18:50,0.362,0.219,0.366,0.345,0.328,0.180,0.108,south-southwest,10.4,No
2017/07/20,19:00,0.359,0.220,0.366,0.341,0.327,0.179,0.108,south-southwest,9.5,No
2017/07/20,19:10,0.356,0.222,0.371,0.343,0.324,0.179,0.107,south-southwest,9.9,No
2017/07/20,19:20,0.359,0.221,0.372,0.346,0.323,0.178,0.108,south-southwest,11.6,No
2017/07/20,19:30,0.360,0.220,0.367,0.345,0.327,0.181,0.109,south-southwest,9.4,No
2017/07/20,19:40,0.359,0.220,0.365,0.344,0.326,0.180,0.107,south-southwest,10.1,No
2017/07/20,19:50,0.357,0.222,0.370,0.342,0.324,0.180,0.107,south-southwest,9.8,No
2017/07/20,20:00,0.361,0.221,0.371,0.346,0.324,0.178,0.108,south-southwest,9.4,No
2017/07/20,20:10,0.361,0.220,0.368,0.345,0.329,0.179,0.108,south-southwest,8.8,No
2017/07/20,20:20,0.358,0.221,0.365,0.343,0.326,0.179,0.107,south-southwest,8.7,No
2017/07/20,20:30,0.357,0.221,0.369,0.342,0.323,0.179,0.107,south-southwest,9.7,No
2017/07/20,20:40,0.361,0.221,0.371,0.345,0.324,0.179,0.109,south-southwest,10.4,No
2017/07/20,20:50,0.360,0.220,0.369,0.344,0.328,0.179,0.108,south-southwest,9.7,No
2017/07/20,21:00,0.358,0.222,0.367,0.341,0.325,0.181,0.108,south-southwest,10.1,No
2017/07/20,21:10,0.357,0.219,0.370,0.341,0.322,0.179,0.107,south-southwest,9.4,No
2017/07/20,21:20,0.364,0.219,0.371,0.347,0.327,0.179,0.108,south-southwest,10.1,No
2017/07/20,21:30,0.361,0.222,0.366,0.344,0.328,0.179,0.108,south-southwest,10.2,No
2017/07/20,21:40,0.357,0.222,0.366,0.344,0.324,0.180,0.107,south-southwest,10.5,No
2017/07/20,21:50,0.358,0.219,0.370,0.342,0.323,0.180,0.108,south-southwest,10.3,No
2017/07/20,22:00,0.361,0.219,0.371,0.345,0.328,0.178,0.108,south-southwest,9.8,No
2017/07/20,22:10,0.359,0.222,0.365,0.345,0.325,0.179,0.107,south-southwest,9.8,No
2017/07/20,22:20,0.358,0.221,0.366,0.342,0.323,0.180,0.108,south,10.2,No
2017/07/20,22:30,0.360,0.219,0.370,0.342,0.326,0.178,0.108,south-southwest,10.2,No
2017/07/20,22:40,0.361,0.222,0.369,0.345,0.326,0.178,0.108,south-southwest,10.8,No
2017/07/20,22:50,0.358,0.220,0.365,0.345,0.325,0.179,0.108,south,10.6,No
2017/07/20,23:00,0.358,0.219,0.366,0.343,0.323,0.180,0.108,south-southwest,11.2,No
2017/07/20,23:10,0.362,0.220,0.371,0.342,0.327,0.179,0.108,south-southwest,12.0,No
2017/07/20,23:20,0.359,0.222,0.370,0.346,0.327,0.179,0.108,south-southwest,11.5,No
2017/07/20,23:30,0.358,0.220,0.368,0.344,0.325,0.179,0.107,south-southwest,11.5,No
2017/07/20,23:40,0.360,0.219,0.365,0.342,0.323,0.180,0.108,south-southwest,11.0,No
2017/07/20,23:50,0.362,0.221,0.372,0.343,0.328,0.181,0.108,south-southwest,9.7,No
